This demonstration page uses our WeatherBlox Daily Observations layout. Learn more.

Left ArrowRight Arrow

Hourly Observations for June 28, 2019

Temp ( °F °C ) Dew Point ( °F °C ) Humidity (%) Winds ( mph kmh ) Pressure ( in mb ) Visibility ( mi km ) Precip ( " mm )
12:53 am 00:53 Clear 53 11.7 53 11.7 100 100 SW 6 9 30.03 1017 10 16 0.00 0.00
1:53 am 01:53 Clear 54 12.2 53 11.7 97 97 SSW 9 15 30.02 1017 10 16 0.00 0.00
2:53 am 02:53 Clear 51 10.6 51 10.6 100 100 WNW 7 11 30.03 1017 10 16 0.00 0.00
3:53 am 03:53 Clear 50 10 50 10 100 100 Calm 30.02 1017 10 16 0.00 0.00
4:53 am 04:53 Mostly Clear 54 12.2 52 11.1 93 93 Calm 30.03 1017 10 16 0.00 0.00
5:53 am 05:53 Sunny 53 11.7 52 11.1 96 96 WSW 6 9 30.06 1018 10 16 0.00 0.00
6:53 am 06:53 Sunny 54 12.2 53 11.7 97 97 WSW 6 9 30.07 1018 10 16 0.00 0.00
7:53 am 07:53 Sunny 57 13.9 55 12.8 93 93 SW 6 9 30.06 1018 10 16 0.00 0.00
8:53 am 08:53 Sunny 59 15 55 12.8 87 87 WSW 7 11 30.06 1018 10 16 0.00 0.00
9:53 am 09:53 Sunny 63 17.2 56 13.3 78 78 WSW 8 13 30.05 1018 10 16 0.00 0.00
10:53 am 10:53 Mostly Sunny 63 17.2 56 13.3 78 78 SW 5 7 30.04 1017 10 16 0.00 0.00
11:53 am 11:53 Sunny 64 17.8 56 13.3 75 75 Calm 30.05 1018 10 16 0.00 0.00
12:53 pm 12:53 Sunny 67 19.4 55 12.8 66 66 ESE 5 7 30.03 1017 10 16 0.00 0.00
1:53 pm 13:53 Mostly Cloudy 68 20 57 13.9 68 68 E 7 11 30.01 1016 10 16 0.00 0.00
2:53 pm 14:53 Cloudy 68 20 57 13.9 68 68 NNE 6 9 30.02 1017 10 16 0.00 0.00
3:53 pm 15:53 Mostly Cloudy 68 20 57 13.9 68 68 ENE 9 15 30.02 1017 10 16 0.00 0.00
4:53 pm 16:53 Cloudy 67 19.4 57 13.9 71 71 NE 6 9 30.00 1016 10 16 0.00 0.00
5:53 pm 17:53 Cloudy 65 18.3 59 15 81 81 E 6 9 30.02 1017 10 16 0.00 0.03
6:53 pm 18:53 Cloudy with Light Rain 65 18.3 59 15 81 81 Calm 30.03 1017 10 16 0.00 0.03
7:53 pm 19:53 Cloudy 66 18.9 57 13.9 73 73 NNW 7 11 30.03 1017 10 16 0.00 0.03
8:53 pm 20:53 Cloudy 65 18.3 59 15 81 81 NE 3 6 30.03 1017 10 16 0.00 0.00
9:53 pm 21:53 Partly Cloudy 60 15.6 56 13.3 86 86 S 7 11 30.03 1017 10 16 0.00 0.00
10:53 pm 22:53 Partly Cloudy 59 15 57 13.9 93 93 W 12 19 30.03 1017 10 16 0.02 0.51
11:53 pm 23:53 Mostly Clear 56 13.3 52 11.1 87 87 SSW 12 19 30.02 1017 10 16 0.00 0.00

Powered by AerisWeather